This demonstration page uses our WeatherBlox Daily Observations layout. Learn more.

Hourly Observations for June 6, 2015

Temp ( °F °C ) Dew Point ( °F °C ) Humidity (%) Winds ( mph kmh ) Pressure ( in mb ) Visibility ( mi km ) Precip ( " mm )
12:15 am 00:15 Cloudy with Thunderstorms 68 20 64 18 88 88 ENE 5 7 30 1016 10 16.09344 0 0
12:35 am 00:35 Cloudy 70 21 63 17 78 78 E 5 7 29.97 1015 10 16.09344 0 0
12:55 am 00:55 Mostly Cloudy 68 20 64 18 88 88 ESE 3 6 30 1016 10 16.09344 0 0
1:15 am 01:15 Partly Cloudy 68 20 64 18 88 88 SE 5 7 30 1016 10 16.09344 0 0
1:35 am 01:35 Mostly Cloudy with Light Rain 68 20 64 18 88 88 Calm 29.94 1014 10 16.09344 0 0
1:55 am 01:55 Cloudy with Thunderstorms 68 20 63 17 83 83 WNW 13 20 30 1016 10 16.09344 0.01 0.254
2:15 am 02:15 Cloudy with Nearby Thunderstorms 64 18 61 16 88 88 WNW 10 17 29.97 1015 4 6.437376 0.22 5.588
2:35 am 02:35 Cloudy 63 17 61 16 94 94 Calm 29.97 1015 10 16.09344 0.24 6.096
2:55 am 02:55 Partly Cloudy 64 18 61 16 88 88 ESE 16 26 29.91 1013 10 16.09344 0.24 6.096
3:15 am 03:15 Clear 64 18 63 17 94 94 ESE 15 24 29.94 1014 10 16.09344 0 0
3:35 am 03:35 Partly Cloudy 64 18 63 17 94 94 E 14 22 29.91 1013 10 16.09344 0 0
3:55 am 03:55 Clear 64 18 63 17 94 94 E 12 19 29.91 1013 10 16.09344 0 0
4:15 am 04:15 Clear 64 18 63 17 94 94 ESE 8 13 29.91 1013 10 16.09344 0 0
4:35 am 04:35 Clear 66 19 63 17 88 88 SE 9 15 29.91 1013 10 16.09344 0 0
4:55 am 04:55 Clear 66 19 63 17 88 88 ESE 15 24 29.91 1013 10 16.09344 0 0
5:15 am 05:15 Clear 66 19 63 17 88 88 SE 15 24 29.91 1013 10 16.09344 0 0
5:35 am 05:35 Clear 66 19 63 17 88 88 SE 15 24 29.91 1013 10 16.09344 0 0
5:55 am 05:55 Clear 66 19 63 17 88 88 SE 16 26 29.91 1013 10 16.09344 0 0
6:15 am 06:15 Sunny 66 19 63 17 88 88 SE 16 26 29.91 1013 10 16.09344 0 0
6:35 am 06:35 Sunny 64 18 61 16 88 88 SE 15 24 29.91 1013 10 16.09344 0 0
6:55 am 06:55 Sunny 64 18 61 16 88 88 SE 16 26 29.91 1013 10 16.09344 0 0
7:15 am 07:15 Sunny 64 18 61 16 88 88 SE 17 28 29.91 1013 10 16.09344 0 0
7:35 am 07:35 Sunny 64 18 63 17 94 94 SE 16 26 29.91 1013 10 16.09344 0 0
7:55 am 07:55 Partly Cloudy 64 18 63 17 94 94 SE 16 26 29.91 1013 10 16.09344 0 0
8:15 am 08:15 Mostly Cloudy 64 18 63 17 94 94 SE 17 28 29.91 1013 10 16.09344 0 0
8:35 am 08:35 Mostly Cloudy 66 19 63 17 88 88 SSE 16 26 29.91 1013 10 16.09344 0 0
8:55 am 08:55 Partly Cloudy 68 20 64 18 88 88 SSE 15 24 29.88 1012 10 16.09344 0 0
9:15 am 09:15 Sunny 70 21 66 19 88 88 SSE 16 26 29.88 1012 10 16.09344 0 0
9:35 am 09:35 Sunny 72 22 66 19 83 83 SSE 16 26 29.88 1012 10 16.09344 0 0
9:55 am 09:55 Sunny 73 23 66 19 78 78 SSE 17 28 29.85 1011 10 16.09344 0 0
10:55 am 10:55 Sunny 77 25 66 19 69 69 S 17 28 29.83 1010 10 16.09344 0 0
11:35 am 11:35 Partly Cloudy 79 26 66 19 65 65 S 14 22 29.83 1010 10 16.09344 0 0
11:55 am 11:55 Partly Cloudy 79 26 66 19 65 65 SSE 15 24 29.83 1010 10 16.09344 0 0
12:15 pm 12:15 Partly Cloudy 79 26 66 19 65 65 S 17 28 29.77 1008 10 16.09344 0 0
12:35 pm 12:35 Mostly Cloudy 81 27 66 19 62 62 S 16 26 29.77 1008 10 16.09344 0 0
12:55 pm 12:55 Partly Cloudy 82 28 66 19 58 58 S 21 33 29.77 1008 10 16.09344 0 0
1:15 pm 13:15 Sunny 82 28 66 19 58 58 S 18 30 29.74 1007 10 16.09344 0 0
1:35 pm 13:35 Sunny 84 29 64 18 51 51 S 18 30 29.74 1007 10 16.09344 0 0
1:55 pm 13:55 Sunny 84 29 66 19 55 55 S 15 24 29.74 1007 10 16.09344 0 0
2:15 pm 14:15 Partly Cloudy 84 29 66 19 55 55 S 14 22 29.74 1007 10 16.09344 0 0
2:35 pm 14:35 Partly Cloudy 84 29 66 19 55 55 SSE 20 31 29.74 1007 10 16.09344 0 0
2:55 pm 14:55 Partly Cloudy 84 29 66 19 55 55 SSE 20 31 29.68 1005 10 16.09344 0 0
3:15 pm 15:15 Partly Cloudy 84 29 64 18 51 51 S 18 30 29.68 1005 10 16.09344 0 0
3:35 pm 15:35 Partly Cloudy 86 30 64 18 49 49 S 18 30 29.65 1004 10 16.09344 0 0
3:55 pm 15:55 Sunny 86 30 63 17 46 46 S 17 28 29.65 1004 10 16.09344 0 0
4:15 pm 16:15 Partly Cloudy with Nearby Thunderstorms 82 28 64 18 55 55 S 18 30 29.71 1006 10 16.09344 0 0
4:35 pm 16:35 undefined N/A N/A N/A S 13 20 N/A N/A 0 0
4:55 pm 16:55 Partly Cloudy 75 24 63 17 65 65 SSW 15 24 29.71 1006 10 16.09344 0.02 0.508
5:15 pm 17:15 Mostly Cloudy 73 23 66 19 78 78 SE 18 30 29.71 1006 10 16.09344 0.2 5.08
5:35 pm 17:35 Partly Cloudy with Thunderstorms 73 23 66 19 78 78 ESE 9 15 29.68 1005 10 16.09344 0.2 5.08
5:55 pm 17:55 Sunny 77 25 66 19 69 69 SE 7 11 29.65 1004 10 16.09344 0.21 5.334
6:15 pm 18:15 Sunny 81 27 66 19 62 62 Calm 29.65 1004 10 16.09344 0 0
6:35 pm 18:35 Sunny 82 28 68 20 62 62 SE 6 9 29.65 1004 10 16.09344 0 0
6:55 pm 18:55 Partly Cloudy 81 27 70 21 70 70 S 5 7 29.65 1004 10 16.09344 0 0
7:15 pm 19:15 Partly Cloudy 84 29 68 20 58 58 SW 6 9 29.62 1003 10 16.09344 0 0
7:35 pm 19:35 Partly Cloudy 82 28 68 20 62 62 SW 8 13 29.65 1004 10 16.09344 0 0
7:55 pm 19:55 Sunny 84 29 66 19 55 55 SSW 8 13 29.62 1003 10 16.09344 0 0
8:15 pm 20:15 Partly Cloudy 81 27 68 20 66 66 SW 5 7 29.65 1004 10 16.09344 0 0
8:35 pm 20:35 Sunny 81 27 66 19 62 62 SW 7 11 29.65 1004 10 16.09344 0 0
8:55 pm 20:55 Partly Cloudy 79 26 66 19 65 65 S 9 15 29.65 1004 10 16.09344 0 0
9:15 pm 21:15 Clear 77 25 66 19 69 69 SW 8 13 29.65 1004 10 16.09344 0 0
9:35 pm 21:35 Clear 75 24 66 19 74 74 SW 6 9 29.68 1005 10 16.09344 0 0
9:55 pm 21:55 Clear 77 25 64 18 65 65 SW 6 9 29.65 1004 10 16.09344 0 0
10:15 pm 22:15 Clear 75 24 64 18 69 69 SW 7 11 29.68 1005 10 16.09344 0 0
10:35 pm 22:35 Clear 75 24 64 18 69 69 SSW 8 13 29.68 1005 10 16.09344 0 0
10:55 pm 22:55 Partly Cloudy 73 23 64 18 74 74 WSW 6 9 29.71 1006 10 16.09344 0 0
11:15 pm 23:15 Partly Cloudy 75 24 64 18 69 69 SW 6 9 29.71 1006 10 16.09344 0 0
11:35 pm 23:35 Clear 73 23 64 18 74 74 SW 7 11 29.71 1006 10 16.09344 0 0
11:55 pm 23:55 Clear 73 23 64 18 74 74 SW 5 7 29.71 1006 10 16.09344 0 0

Powered by AerisWeather